Probability
0 0 0 0 0 0 0 0 0 0 0 0 0 0 0 0 0 0 0 1 1 2 2 1 0 0 2 6 11 14 15 14 11 9 9 9 8 7 5 4 4 4 4 4
0 0 0 0 0 0 0 0 0 0 0 0 0 0 0 0 0 0 1 1 2 3 2 1 0 1 3 7 10 12 13 13 13 11 10 10 9 7 5 6 7 7 6 5
0 0 0 0 0 0 0 0 0 0 0 0 0 0 0 1 2 1 1 1 2 4 4 2 2 4 5 8 10 10 11 13 14 13 10 10 10 8 6 7 8 9 9 8
0 0 0 0 0 0 0 0 0 0 0 0 0 0 0 2 3 3 2 1 3 6 7 6 6 8 8 9 9 9 10 11 13 12 10 10 11 10 8 8 8 9 9 10
0 0 0 0 0 0 1 1 1 0 0 0 0 0 0 1 3 3 3 3 5 9 10 9 9 10 10 10 9 9 9 10 11 11 11 11 13 13 12 10 9 9 10 10
0 0 0 0 1 1 2 2 1 0 0 0 0 0 0 1 3 4 5 6 7 10 11 12 12 14 14 12 10 9 9 10 12 12 12 13 14 16 16 15 13 12 11 10
0 0 0 0 1 2 2 2 1 0 0 0 0 0 1 2 4 5 6 7 8 9 11 12 15 18 18 15 13 12 11 12 13 12 12 12 13 16 17 15 14 13 12 11
0 0 0 1 1 1 1 1 0 0 0 0 0 1 2 2 2 3 5 7 9 11 12 13 16 19 19 16 15 15 16 16 14 11 10 10 11 13 14 13 11 11 11 11
0 0 0 1 1 1 1 0 0 0 0 0 0 1 2 3 3 4 7 9 12 15 16 15 15 17 17 15 14 15 17 18 15 12 10 10 10 12 12 10 8 8 9 10
0 0 0 1 1 1 1 0 0 0 0 0 0 0 3 6 7 7 10 12 16 19 19 16 15 15 15 14 13 13 15 17 15 13 11 10 10 10 8 7 7 9 11 12
0 0 0 0 0 1 1 0 0 0 0 0 0 1 4 8 10 10 11 14 18 20 18 15 14 14 14 14 13 12 13 14 14 12 10 10 9 8 7 6 8 12 15 17
0 0 0 0 0 0 0 0 0 0 0 0 0 2 6 11 12 11 13 17 19 17 15 13 13 14 13 11 12 12 12 13 13 12 11 11 11 9 7 8 9 13 16 18
0 0 1 0 0 0 0 0 0 0 0 0 2 6 10 15 16 16 17 19 19 17 15 14 15 15 13 10 12 12 12 12 13 13 12 12 12 9 7 8 8 10 13 16
0 0 0 0 0 0 0 0 0 0 0 1 4 8 13 17 19 19 19 19 19 19 20 19 19 19 17 15 15 15 14 13 13 12 12 12 11 8 6 6 6 6 9 12
0 0 0 0 0 1 1 1 2 2 2 3 5 9 12 15 17 18 18 20 21 22 22 22 21 21 21 20 21 22 20 18 15 13 13 12 10 8 5 4 4 4 6 7
0 0 0 0 0 1 2 3 3 3 3 4 5 9 12 14 16 17 19 21 21 20 22 23 21 21 22 23 25 27 26 23 20 16 14 13 13 10 7 5 5 6 7 7
1 1 1 0 0 1 2 3 4 5 5 5 7 10 13 16 18 20 22 21 18 18 21 22 20 20 22 23 25 29 30 27 24 19 16 16 16 15 12 11 11 12 13 13
2 2 1 0 0 0 1 3 5 6 5 6 8 11 15 19 21 22 21 19 18 20 21 20 17 18 22 24 26 29 31 30 27 22 18 19 20 19 17 18 19 20 20 20
2 2 2 0 0 0 0 1 3 4 5 7 10 14 18 21 21 21 20 18 21 25 24 20 17 19 23 26 28 29 30 30 28 23 21 22 24 23 23 23 23 24 25 24
1 2 2 1 0 0 1 2 2 3 6 10 14 18 21 21 21 24 23 22 25 27 26 24 23 23 25 27 28 28 27 27 27 24 23 26 28 27 26 25 24 25 24 23
0 1 2 1 0 2 4 4 4 7 11 15 19 23 26 26 27 29 29 29 28 27 26 26 26 25 25 26 27 26 25 24 24 24 25 29 30 28 26 25 24 23 22 20
1 2 2 3 3 5 8 9 9 12 16 18 22 28 33 34 33 32 31 31 28 25 25 26 25 25 26 28 29 27 24 23 25 27 28 31 31 28 27 27 25 23 21 19
4 5 7 7 7 9 11 11 11 14 17 19 23 30 35 36 34 32 30 29 26 25 24 23 22 24 28 31 32 29 26 26 28 31 32 32 31 29 28 29 28 25 23 21
9 10 11 12 11 11 11 10 11 14 17 20 22 27 30 30 30 31 31 29 27 26 23 19 17 21 27 31 31 30 29 28 30 32 32 30 29 28 27 27 27 26 25 24
11 12 15 16 15 13 11 10 11 14 18 20 20 21 23 24 25 29 31 31 30 28 25 20 17 18 23 27 29 29 29 27 28 29 28 26 25 26 25 22 21 22 22 22
10 13 16 17 17 15 14 12 12 13 17 19 19 19 20 21 24 27 30 31 30 30 29 23 18 17 20 24 26 28 28 26 26 26 25 24 24 25 24 20 18 17 18 18
Wind_Speed
9 10 10 8 6 4 3 4 3 3 3 5 4 3 5 8 9 9 9 9 9 8 8 8 8 7 7 6 6 5 5 5 4 3 3 2 2 2 2 1 1 1 1 1
10 12 8 5 5 6 6 6 4 5 3 4 3 3 4 8 10 9 10 10 10 9 9 9 8 8 8 7 6 6 6 5 5 3 2 1 1 1 1 1 2 1 1 2
14 7 7 8 8 9 8 7 4 3 5 6 5 5 6 7 8 9 10 10 10 10 10 10 10 9 8 8 8 6 5 5 4 4 3 2 2 2 2 2 2 2 2 2
12 7 9 11 10 10 8 5 5 5 7 4 5 3 5 7 9 10 10 10 10 10 10 10 11 10 9 9 8 7 6 6 5 5 3 3 2 1 1 1 1 2 2 2
10 11 12 12 10 9 3 3 5 7 7 6 5 6 3 6 6 9 10 11 11 11 11 11 11 10 9 9 8 8 7 6 5 5 4 4 3 2 1 1 2 2 2 2
7 8 9 8 6 6 6 6 5 7 8 7 3 6 1 3 3 4 8 11 11 11 11 11 10 10 9 8 8 7 7 6 5 5 4 4 3 2 2 2 2 2 2 2
11 10 8 7 9 10 10 9 7 8 7 4 2 6 1 2 1 2 4 8 11 11 11 11 11 11 10 9 8 8 7 6 5 5 4 4 3 3 3 3 2 2 1 1
14 14 12 10 11 10 13 13 8 6 5 4 6 5 1 2 1 2 3 6 9 10 10 11 11 10 10 9 9 8 7 6 6 5 4 3 4 3 2 2 2 1 1 1
11 10 10 9 8 9 12 12 10 9 8 6 4 3 3 3 3 4 5 7 9 9 10 10 10 10 10 9 8 8 7 6 6 5 4 4 3 2 2 2 2 2 1 1
7 9 10 9 8 5 9 9 8 10 7 8 6 6 3 3 3 4 5 7 8 9 9 10 9 10 9 9 8 7 7 6 6 5 4 4 3 3 2 2 1 1 1 0
9 10 10 11 11 11 9 10 9 8 8 9 7 2 2 2 2 3 4 5 8 9 9 9 8 9 9 8 8 8 7 7 6 5 4 3 3 3 3 2 2 1 1 1
9 9 9 10 5 5 10 11 12 10 8 9 9 1 5 2 2 2 3 5 6 7 7 8 8 8 9 9 8 8 7 7 6 5 5 4 3 3 3 2 2 2 1 1
6 8 10 11 10 9 10 10 11 11 8 9 10 3 6 3 3 3 4 5 6 6 7 7 8 8 8 8 7 7 7 6 6 5 5 4 4 4 3 3 2 2 2 1
6 9 11 11 8 9 10 10 11 13 11 10 9 4 5 3 3 3 4 5 6 6 6 6 6 7 7 6 6 6 6 6 6 6 5 5 4 3 3 3 3 2 2 2
7 10 9 7 4 7 9 10 11 12 11 11 8 7 4 4 4 4 5 6 6 6 6 6 6 7 7 7 7 7 6 6 6 6 6 5 4 4 3 3 3 2 2 2
5 7 8 9 8 8 8 9 11 11 10 10 7 4 2 3 4 5 5 5 5 4 5 5 6 6 6 6 7 7 7 7 6 6 5 4 4 4 4 3 3 2 2 1
6 7 9 10 10 10 12 10 11 10 9 10 9 5 5 5 5 5 5 4 4 3 3 4 5 5 5 5 6 6 6 6 6 6 5 5 5 4 4 4 4 3 3 2
6 8 8 8 9 15 6 4 6 7 7 6 4 4 5 4 4 4 4 4 3 3 3 3 3 4 4 5 5 5 6 7 6 6 6 6 6 5 5 5 4 4 3 3
6 7 8 9 12 10 7 7 7 8 7 5 5 5 4 4 5 6 4 2 2 3 3 3 3 3 4 4 5 6 6 7 7 6 6 6 6 5 5 5 4 4 3 3
6 7 9 9 12 11 5 4 3 6 8 5 5 6 5 6 6 5 4 2 2 2 2 2 2 3 3 4 4 5 6 6 6 6 6 6 6 5 5 5 4 3 3 4
8 8 10 10 10 5 3 2 6 9 1 4 4 4 5 3 1 3 2 2 2 2 2 2 2 2 3 3 4 4 4 4 4 5 5 5 5 5 5 5 5 5 5 4
7 7 7 8 10 5 4 3 3 3 3 2 3 3 2 2 3 3 2 2 2 2 2 2 2 1 2 3 4 4 4 3 3 4 5 5 5 5 5 5 5 5 5 6
4 3 3 3 1 5 3 1 2 1 0 1 2 2 2 2 3 2 2 2 2 2 2 2 2 2 2 2 3 3 3 3 3 4 5 5 5 5 5 6 6 6 5 5
3 2 3 2 2 2 1 1 1 1 1 1 1 2 2 2 2 2 2 2 2 1 2 2 2 2 2 2 2 3 2 3 3 4 4 4 5 5 5 5 5 5 5 5
1 3 4 4 2 2 1 0 1 1 1 1 1 0 1 1 2 2 2 1 1 2 2 3 3 3 3 2 3 2 2 4 5 5 5 5 5 4 4 4 3 4 3 3
3 4 5 3 2 3 2 1 1 1 1 1 1 1 1 1 1 1 1 1 2 3 2 3 3 3 3 3 3 3 3 4 5 5 5 5 4 4 4 4 3 0 2 1
Wind_Direction
194 216 216 210 226 264 235 227 193 128 146 209 213 200 167 178 190 187 187 188 189 188 175 174 176 176 172 171 173 177 181 172 188 189 197 183 173 175 171 171 137 176 202 180
202 220 217 206 209 219 222 224 202 152 160 231 229 225 183 187 197 197 193 191 194 185 175 177 179 178 180 177 179 182 182 178 190 178 195 195 187 189 155 145 133 191 199 217
222 206 180 195 201 214 220 235 227 185 174 207 242 209 180 182 194 196 201 197 195 191 184 180 182 182 183 182 184 184 182 180 186 185 191 182 180 201 177 176 176 197 206 216
225 199 193 207 213 223 220 218 230 208 221 205 243 257 153 175 187 194 197 196 195 191 190 187 184 184 187 185 181 180 181 182 183 196 203 205 208 209 178 210 157 188 209 226
204 199 202 214 216 224 225 184 216 221 238 249 216 266 132 165 192 195 195 197 196 191 190 189 189 186 186 185 180 177 178 181 184 196 199 216 224 213 202 205 165 222 207 226
208 196 214 216 200 197 160 169 187 222 237 237 231 263 209 156 193 191 185 190 193 190 186 187 187 182 182 181 179 174 174 180 186 195 199 216 226 227 231 232 218 219 204 211
201 197 196 195 179 178 198 210 214 214 219 221 174 251 292 72 144 222 186 181 185 186 184 182 181 178 177 178 177 173 172 177 183 191 199 205 217 221 223 231 216 240 236 209
201 197 189 198 211 200 210 225 238 251 240 195 186 239 126 99 139 199 185 172 175 181 182 180 178 175 175 176 177 177 174 177 180 185 192 202 216 228 221 233 262 245 267 289
208 199 178 195 219 225 209 226 248 254 260 258 208 203 191 169 174 178 174 165 171 176 176 176 175 174 172 175 176 174 171 176 179 180 186 191 201 224 226 221 234 232 236 236
227 207 183 179 193 215 246 225 227 244 244 253 233 229 213 188 179 173 177 172 171 173 171 173 172 172 169 169 169 171 171 172 174 177 188 179 188 197 206 219 211 254 254 276
229 218 189 188 210 200 195 211 229 243 253 258 255 209 89 177 177 183 176 169 171 175 173 171 171 170 165 165 168 170 167 168 172 172 172 178 180 184 192 194 193 199 203 195
219 227 209 199 196 246 221 220 220 233 233 248 269 196 94 105 128 140 144 151 162 172 169 168 167 167 168 170 169 169 171 173 172 168 168 174 174 172 182 177 182 178 171 189
202 222 208 197 191 198 215 218 227 241 241 243 252 196 119 111 111 120 127 141 153 165 167 167 166 169 172 171 169 169 174 172 166 163 167 168 176 177 180 182 175 163 164 171
227 228 235 232 215 192 203 209 218 231 238 239 246 227 164 164 151 135 134 141 147 155 163 168 166 168 169 168 167 172 176 174 168 168 172 172 177 176 177 179 173 167 163 157
230 224 227 245 230 213 214 213 213 228 247 255 245 231 186 180 168 147 143 142 145 153 163 168 169 166 170 171 170 176 179 177 175 175 177 174 169 169 177 176 167 163 165 155
228 227 212 221 220 214 218 218 217 227 236 243 238 225 156 148 139 137 141 143 148 159 168 172 178 175 176 180 181 177 176 172 175 178 176 169 170 170 173 172 168 166 165 170
207 212 221 219 213 221 223 222 223 224 232 240 239 217 164 162 159 154 153 150 147 158 166 178 187 185 184 186 187 181 174 169 173 176 175 172 173 175 179 179 175 178 183 179
219 223 226 223 211 232 220 208 225 227 234 240 242 198 187 171 157 154 156 154 155 158 168 183 190 184 188 189 182 181 175 173 175 178 179 179 181 181 179 181 183 188 188 187
221 221 228 226 225 223 205 205 217 225 224 225 214 191 175 161 163 152 135 137 159 166 172 184 197 188 185 182 177 183 187 181 182 184 184 184 186 183 183 187 191 192 189 191
189 223 231 227 237 232 201 159 217 231 218 195 195 184 175 184 209 144 126 150 152 138 145 164 183 176 175 174 182 190 196 194 193 189 186 184 185 185 188 189 193 191 198 199
189 208 225 226 233 226 84 141 201 226 211 138 175 179 190 205 345 98 141 146 146 147 146 154 165 171 173 175 185 195 198 206 200 189 186 185 182 185 194 194 198 195 198 201
218 210 219 229 233 207 85 170 225 23 47 143 165 172 174 129 120 136 140 143 150 150 153 159 156 158 165 178 190 197 196 200 197 194 192 195 192 195 189 193 202 206 203 200
241 288 267 270 338 67 86 85 46 14 99 162 163 145 151 161 164 151 158 166 170 165 160 172 174 173 168 185 199 208 197 188 195 202 204 201 194 198 197 199 205 202 202 211
178 274 252 224 161 128 110 80 51 44 74 106 142 153 173 192 189 185 179 176 176 184 188 192 196 193 193 201 215 218 200 186 192 203 208 201 200 201 201 210 213 215 205 213
233 224 225 225 209 214 183 57 38 43 62 68 75 136 207 208 208 206 194 183 201 208 215 216 217 217 217 216 226 221 220 210 203 206 214 211 210 201 203 216 232 234 230 244
231 246 249 243 206 241 228 267 317 310 305 314 310 293 290 281 259 246 225 210 225 224 216 221 225 228 229 229 234 226 219 225 212 212 213 215 211 198 206 203 207 284 266 194